Orbital Elements at Epoch 2459000.5 (2020-May-31.0) TDB
Reference: JPL 18 (heliocentric ecliptic J2000)
Element | Value | Uncertainty (1-sigma) | Units |
e | .1575122303242945 | 4.7492e-08 | |
a | 3.105934182868418 | 3.2428e-08 | au |
q | 2.616711562484348 | 1.5919e-07 | au |
i | 13.68574462369962 | 5.0529e-06 | deg |
node | 167.7096523373785 | 2.2018e-05 | deg |
peri | 163.089117103413 | 2.9377e-05 | deg |
M | 266.1024854026859 | 2.2573e-05 | deg |
tp | 2459521.980887205996 (2021-Nov-03.48088721) | 0.00013071 | TDB |
period | 1999.340666249419 5.47 | 3.1312e-05 8.573e-08 | d yr |
n | .1800593596064482 | 2.8199e-09 | deg/d |
Q | 3.595156803252488 | 3.7536e-08 | au |
|
| | Orbit Determination Parameters
Additional Information
|